www.pogodaiklimat.ru

Погода и климат >> Архив погоды >> Индия >> Карнатака >> Карвар


ПОГОДА в Карваре

  • Прогноз погоды в Карваре
  • Монитор погоды в Карваре

АРХИВ ПОГОДЫ в Карваре

Время (UTC), дата Ветер
(напр.,м/с)
 
Видим.   Явления Облачность Т
(С)
Тd
(С)
f
(%)
Тe
(С)
Тes
(С)
Комфортность P
(гПа)
Po
(гПа)
Тmin
(С)
Tmax
(С)
R
(мм)
R24
(мм)
S
(см)
09 20.05 СЗ 1 10 км 1/1 600 м
[Cu hum]
+35.8 +23.2 48 +46 +64 опасность
перегрева
1009.3 1008.8
12 20.05 СЗ 1 10 км 5/3 600 м
[Sc diur, vesp Ac trans Ci sp]
+35.0 +23.6 52 +46 +48 опасность
перегрева
1008.3 1007.8 +36.4
03 21.05 штиль 0 10 км 3/3 600 м
[Sc diur, vesp]
+30.4 +23.1 65 +41 +46 опасность
перегрева
1010.0 1009.5 +27.5 +36.4
06 21.05 З 2 10 км 3/3 600 м
[Sc diur, vesp]
+33.6 +22.9 54 +44 +59 опасность
перегрева
1010.9 1010.4
09 21.05 СЗ 1 10 км 8/5 600 м
[Sc Ac trans Ci fib]
+36.2 +24.3 51 +49 +56 опасность
перегрева
1009.3 1008.8
12 21.05 З 2 10 км 4/4 600 м
[Sc diur, vesp]
+33.6 +23.2 55 +44 +46 опасность
перегрева
1008.6 1008.1 +36.0
03 22.05 штиль 0 10 км 6/4 600 м
[Frnb Ac trans Ci fib]
+31.0 +23.2 63 +41 +46 опасность
перегрева
1009.5 1009.0 +28.2 +36.0
06 22.05 СЗ 2 10 км 1/1 600 м
[Cu hum]
+35.6 +24.9 54 +49 +67 опасность
перегрева
1010.3 1009.8
09 22.05 СЗ 2 10 км 1/1 600 м
[Cu hum]
+37.0 +24.3 48 +49 +64 опасность
перегрева
1008.4 1007.9
12 22.05 СЗ 2 10 км 4/4 600 м
[Sc diur, vesp]
+34.0 +23.0 53 +44 +46 опасность
перегрева
1007.5 1007.0 +37.2
03 23.05 штиль 0 10 км 6/4 600 м
[Sc Ac trans Ci sp]
+29.0 +22.5 68 +38 +42 очень
душно
1009.4 1008.9 +28.1 +37.2
06 23.05 СЗ 1 10 км 6/3 600 м
[Sc diur, vesp Ac trans Ci sp]
+34.4 +24.5 56 +47 +60 опасность
перегрева
1009.5 1009.0
09 23.05 СЗ 2 10 км 6/4 600 м
[Sc Ac trans Ci fib]
+35.7 +24.3 52 +48 +57 опасность
перегрева
1008.4 1007.9
12 23.05 З 1 10 км 5/4 600 м
[Sc Ci fib]
+33.4 +22.7 54 +43 +45 опасность
перегрева
1007.1 1006.6 +37.0
03 24.05 штиль 0 10 км 5/1 600 м
[Sc Ac trans]
+26.0 +20.2 70 +32 +38 очень
душно
1010.6 1010.1 +24.3 +37.0 3
06 24.05 СЗ 1 10 км ясно +34.0 +22.7 52 +44 +69 опасность
перегрева
1009.7 1009.2
09 24.05 З 2 10 км 1/1 600 м
[Sc]
+34.8 +23.0 50 +45 +61 опасность
перегрева
1008.6 1008.1
12 24.05 СЗ 2 10 км 5/5 600 м
[Sc diur, vesp]
+34.0 +23.7 55 +45 +47 опасность
перегрева
1008.4 1007.9 +35.4
03 25.05 С 1 10 км 3/1 600 м
[Sc Ci fib]
+31.0 +23.8 66 +43 +49 опасность
перегрева
1009.5 1009.0 +28.3 +35.4
06 25.05 СЗ 2 10 км 1/0
[Ci fib]
+36.0 +26.3 58 +53 +74 опасность
перегрева
1008.8 1008.3
09 25.05 СЗ 3 10 км ясно +36.6 +26.4 56 +53 +67 опасность
перегрева
1007.7 1007.2
12 25.05 СЗ 3 10 км 5/3 600 м
[Sc diur, vesp Ci sp]
+34.2 +26.1 63 +50 +52 опасность
перегрева
1007.3 1006.8 +36.7
03 26.05 штиль 0 10 км 3/3 600 м
[Sc diur, vesp]
+30.6 +24.3 69 +43 +49 опасность
перегрева
1008.7 1008.2 +29.2 +36.7
06 26.05 СЗ 2 10 км ясно +35.8 +25.8 56 +51 +73 опасность
перегрева
1008.3 1007.8
09 26.05 СЗ 2 10 км 1/1 600 м
[Sc]
+36.7 +25.8 54 +52 +67 опасность
перегрева
1007.5 1007.0
12 26.05 СЗ 2 10 км 3/1 600 м
[Sc Ac trans]
+34.2 +24.9 58 +47 +50 опасность
перегрева
1006.8 1006.3 +37.0
03 27.05 штиль 0 10 км 5/1 600 м
[Sc Ac trans Ci fib]
+31.2 +24.0 66 +43 +49 опасность
перегрева
1009.0 1008.5 +28.0 +37.0
06 27.05 СЗ 2 10 км ясно +35.8 +24.5 52 +48 +70 опасность
перегрева
1008.3 1007.8

 

Местоположение метеостанции Карвар (Карнатака, Индия): широта 14.78 долгота 74.13 высота над уровнем моря 4 м.

В архиве по умолчанию представлена погода в Карваре за последнюю неделю. Архивные данные за месяц целиком и за предыдущие месяцы, начиная с января 2011 года, Вы можете получить, выбрав интересующий диапазон дат из раскрывающегося списка и нажав кнопку "Ввод!".


*Определитесь, кто Вы:
робот инопланетянин человек

Внимание! Время в таблицах - всемирное. Для получения местного времени необходимо прибавить поправку, которая равна 5.5 ч.

Смотрите также архив погоды в соседних городах и на ближайших метеорологических станциях:

Погода в Хоннаваре (Карнатака, Индия) (65 км)
Погода в Мормугао (Гоа, Индия) (80 км)
Погода в Панаджи (Гоа, Индия) (85 км)
Погода в Ширали (Карнатака, Индия) (90 км)
Погода в Дхарваде (Карнатака, Индия) (120 км)
Погода в Белгауме (Карнатака, Индия) (127 км)
Погода в Белгаум аэропорту (Карнатака, Индия) (130 км)
Погода в Венгерле (Махараштра, Индия) (133 км)
Погода в Хавери (Карнатака, Индия) (137 км)
Погода на Агамбе (Карнатака, Индия) (175 км)

Пояснения к столбцам:

Ветер - указаны скорость ветра в м/с - средняя за 10 мин, порывы в срок и между сроками (в фигурных скобках) и направление, откуда дует ветер: С - северный, СВ - северо-восточный, В - восточный, ЮВ - юго-восточный, Ю - южный, ЮЗ - юго-западный, З - западный, СЗ - северо-западный.
Видимость - горизонтальная дальность видимости в метрах или километрах. При видимости от 1 до 10 км при отсутствии осадков обычно наблюдается дымка, при ухудшении видимости до 1 км и менее - туман. В сухую погоду видимость может ухудшаться дымом, пылью или мглою.
Явления - указаны атмосферные явления, наблюдавшиеся в срок или в последний час перед сроком; фигурными скобками обозначены явления, наблюдавшиеся между сроками (за 1-3 часа до срока); квадратными скобками обозначены град или гололедные отложения с указанием их диаметра в мм.
Облачность - указаны через наклонную черту общая и нижняя облачность в баллах и высота нижней границы облаков в метрах; квадратными скобками обозначены формы облаков: Ci - перистые, Cs - перисто-слоистые, Cc - перисто-кучевые, Ac - высококучевые, As - высокослоистые, Sc - слоисто-кучевые, Ns - слоисто-дождевые, Cu - кучевые, Cb - кучево-дождевые. Подробнее классификацию облаков см. в Атласе облаков (PDF).
T - Температура воздуха - температура, измеренная на высоте 2 м над землей.
Td - Температура точки росы - температура, при понижении до которой содержащийся в воздухе водяной пар достигнет насыщения.
f - Относительная влажность воздуха - влажноcть воздуха, измеренная на высоте 2 м над землей.
Te - Эффективная температура - температура, которую ощущает одетый по сезону человек в тени. Характеристика душности погоды. При расчете учитывается влияние влажности воздуха и скорости ветра на теплоощущения человека.
Tes - Эффективная температура на солнце - температура, которую ощущает человек, с поправкой на солнечный нагрев. Характеристика знойности погоды. Зависит от высоты солнца над горизонтом, облачности и скорости ветра. Ночью, в пасмурную погоду, а также при ветре 12 м/с и более поправка равна нулю.
P - Атмосферное давление - приведенное к уровню моря атмосферное давление.
Po - Атмосферное давление - измеренное на уровне метеостанции атмосферное давление.
Tmin - Минимальная температура - минимум температуры воздуха на высоте 2 м над землей.
Tmax - Максимальная температура - максимум температуры воздуха на высоте 2 м над землей.
R - Количество осадков - Количество выпавших осадков за период времени, мм. При наведении курсора мыши на число - период времени, за который выпало указанное количество осадков.
R24 - Количество осадков - Количество выпавших осадков за 24 часа, мм.
S - Снежный покров - Высота снежного покрова, см. При наведении курсора мыши на число - состояние снежного покрова и степень покрытия местности в баллах.